Terminal Aerodrome Forecast
Issued by NWS Pocatello, ID

Home | Current Version | Previous Version | Text Only | Print | Product List | Glossary On
Versions: 1 2 3 4 5 6 7 8 9 10 11 12 13
935
FTUS45 KPIH 201147
TAFIDA
TAF
KIDA 201147Z 2012/2112 20010KT P6SM SCT100 BKN200 WS008/18035KT
     FM201700 22027G37KT P6SM -SHRA BKN015 OVC040
     FM202200 22030G40KT P6SM VCSH SCT020 OVC040
     FM210200 21020KT P6SM SCT040 OVC100=

USA.gov is the U.S. government's official web portal to all federal, state and local government web resources and services.